Fort Knox, KY

5:00 AM EST on February 13, 2016 (GMT -0500)
Godman Army Air Field

Weather History for KFTK - October, 2012

Change the Weather History Date:

Wednesday, October 3, 2012

  Actual Average Record
Temperature  
Mean Temperature 62 °F -  
Max Temperature 74 °F 71 °F 86 °F (2002)
Min Temperature 51 °F 48 °F 33 °F (2003)
Degree Days  
Heating Degree Days 3    
Growing Degree Days 12 (Base 50)    
Moisture  
Dew Point 52 °F    
Average Humidity 76    
Maximum Humidity 97    
Minimum Humidity 43    
Precipitation  
Precipitation 0.00 in - - ()
Sea Level Pressure  
Sea Level Pressure 30.04 in    
Wind  
Wind Speed 7 mph (SSW)    
Max Wind Speed 13 mph    
Max Gust Speed 17 mph    
Visibility 10 miles    
Events      
Averages and records for this station are not official NWS values.
T = Trace of Precipitation, MM = Missing Value Source: NWS Daily Summary

Daily Weather History Graph

Daily Weather History Graph

Search for Another Location

Airport or City:

Trip Planner

Search our weather history database for the weather conditions in past years. The results will help you decide how hot, cold, wet, or windy it might be!

Date:

Astronomy

Oct. 03, 2012 Rise Set
Actual Time 7:41 AM EDT 7:23 PM EDT
Civil Twilight 7:15 AM EDT 7:49 PM EDT
Nautical Twilight 6:45 AM EDT 8:19 PM EDT
Astronomical Twilight 6:14 AM EDT 8:50 PM EDT
Moon 9:19 PM EDT (10/3) 11:00 AM EDT (10/3)
Length of Visible Light 12h 33m
Length of Day
11h 41m
Waning Gibbous, 89% of the Moon is Illuminated
Oct 3
Waning Gibbous
Oct 8
Last Quarter
Oct 15
New
Oct 21
First Quarter
Oct 29
Full

Hourly Weather History & Observations

Time (EDT) Temp. Dew Point Humidity Pressure Visibility Wind Dir Wind Speed Gust Speed Precip Events Conditions
12:55 AM 56.8 °F 55.2 °F 94% 29.92 in 10.0 mi South 6.9 mph - N/A   Overcast
1:55 AM 57.0 °F 53.1 °F 87% 29.94 in 10.0 mi SSW 8.1 mph - N/A   Overcast
2:27 AM 57.2 °F 53.6 °F 88% 29.95 in 10.0 mi SSW 9.2 mph - N/A   Overcast
2:39 AM 57.2 °F 53.6 °F 88% 29.96 in 10.0 mi South 11.5 mph - N/A   Overcast
2:55 AM 56.3 °F 53.2 °F 89% 29.96 in 10.0 mi SSW 8.1 mph - N/A   Overcast
3:55 AM 55.0 °F 52.5 °F 91% 29.97 in 10.0 mi South 6.9 mph - N/A   Mostly Cloudy
4:55 AM 53.6 °F 52.0 °F 94% 29.99 in 10.0 mi South 4.6 mph - N/A   Mostly Cloudy
5:55 AM 52.3 °F 51.3 °F 96% 30.01 in 10.0 mi South 4.6 mph - N/A   Scattered Clouds
6:55 AM 51.8 °F 50.9 °F 97% 30.03 in 9.0 mi Calm Calm - N/A   Scattered Clouds
7:55 AM 51.4 °F 50.4 °F 96% 30.05 in 7.0 mi SSE 3.5 mph - N/A   Mostly Cloudy
8:55 AM 54.9 °F 52.9 °F 93% 30.06 in 10.0 mi South 5.8 mph - N/A   Scattered Clouds
9:55 AM 59.7 °F 54.5 °F 83% 30.08 in 10.0 mi SSW 9.2 mph - N/A   Clear
10:55 AM 65.5 °F 55.6 °F 70% 30.09 in 10.0 mi SSW 10.4 mph - N/A   Clear
11:55 AM 69.6 °F 53.2 °F 56% 30.09 in 10.0 mi SSW 12.7 mph 17.3 mph N/A   Clear
12:55 PM 72.0 °F 51.4 °F 48% 30.08 in 10.0 mi SSW 8.1 mph - N/A   Clear
1:55 PM 73.2 °F 50.9 °F 45% 30.06 in 10.0 mi South 9.2 mph - N/A   Clear
2:55 PM 73.8 °F 50.2 °F 43% 30.05 in 10.0 mi SSW 6.9 mph - N/A   Partly Cloudy
3:55 PM 73.6 °F 50.5 °F 44% 30.05 in 10.0 mi South 9.2 mph - N/A   Partly Cloudy
4:55 PM 73.4 °F 49.8 °F 43% 30.06 in 10.0 mi South 6.9 mph - N/A   Partly Cloudy
5:55 PM 72.1 °F 50.7 °F 47% 30.07 in 10.0 mi SSW 8.1 mph - N/A   Clear
6:55 PM 68.5 °F 52.2 °F 56% 30.07 in 10.0 mi SSW 4.6 mph - N/A   Clear
7:55 PM 63.1 °F 54.0 °F 72% 30.09 in 10.0 mi Calm Calm - N/A   Clear
8:55 PM 60.6 °F 53.8 °F 78% 30.11 in 10.0 mi South 3.5 mph - N/A   Clear
9:55 PM 57.2 °F 52.7 °F 85% 30.12 in 10.0 mi Calm Calm - N/A   Clear
10:55 PM 55.0 °F 52.7 °F 92% 30.13 in 10.0 mi Calm Calm - N/A   Clear
11:55 PM 55.9 °F 52.7 °F 89% 30.14 in 10.0 mi SW 3.5 mph - N/A   Partly Cloudy